Flag for Canada Weather past 2 weeks in Kuujjuaq, Quebec, Canada

Now
18 °F

Light snow. Mostly cloudy.


Feels Like: 3 °F
Forecast: 4 / 17 °F
Wind: 16 mph from West

Location: Kuujjuaq


UV Index: 0 (Low)

Visibility: 3 mi


Pressure: 30.10 "Hg

Humidity: 73%

Dew point: 10 °F

Location of KuujjuaqLocation

Historic Weather in Kuujjuaq

°F

Kuujjuaq temperature yesterday

Maximum temperature yesterday: 19 °F (at 3:00 PM)
Minimum temperature yesterday: 1 °F (at 5:00 AM)
Average temperature yesterday: 11 °F

Past Weeks' High & Low Weather Summary

 TemperatureHumidityPressure
High28 °F (Apr 3, 8:00 AM)93% (Apr 6, 7:00 PM)30.47 "Hg (Apr 6, 7:00 PM)
Low-17 °F (Apr 14, 5:00 AM)39% (Apr 4, 1:00 PM)28.92 "Hg (Apr 11, 2:00 AM)
Average9 °F69%29.84 "Hg
* Reported Apr 3 6:00 AM — Apr 18 6:00 AM, Kuujjuaq, Weather by CustomWeather, © 2014

Note: Actual official high and low records may vary slightly from our data, if they occured in-between our weather recording intervals... More about our weather records

Advertising

Historic Weather Conditions — Data for Previous 24 hours

 ConditionsComfort  
Time TempWeatherWind HumidityBarometerVisibility
6:00 AM
Apr 18
18 °FLight snow. Mostly cloudy.16 mph73%30.10 "Hg3 mi
5:00 AM18 °FLight snow. Overcast.23 mph73%30.11 "Hg4 mi
4:00 AM18 °FLight snow. Overcast.17 mph68%30.12 "Hg7 mi
3:00 AM18 °FLight snow. Overcast.16 mph68%30.13 "Hg12 mi
2:00 AM18 °FLight snow. Overcast.21 mph68%30.14 "Hg12 mi
1:00 AM18 °FLight snow. Overcast.24 mph68%30.13 "Hg12 mi
12:00 AM18 °FLight snow. Overcast.28 mph62%30.13 "Hg12 mi
11:49 PM
Apr 17
19 °FLight snow. Mostly cloudy.24 mph58%30.13 "Hg15 mi
11:00 PM19 °FMostly cloudy.26 mph53%30.14 "Hg15 mi
10:00 PM19 °FMostly cloudy.23 mph53%30.15 "Hg15 mi
9:00 PM19 °FPassing clouds.20 mph53%30.16 "Hg15 mi
8:00 PM19 °FPartly sunny.21 mph53%30.15 "Hg15 mi
7:00 PM19 °FPartly sunny.23 mph53%30.14 "Hg15 mi
6:00 PM19 °FPartly sunny.22 mph49%30.14 "Hg15 mi
5:00 PM19 °FOvercast.21 mph49%30.14 "Hg15 mi
4:00 PM19 °FLight snow. Overcast.30 mph49%30.13 "Hg15 mi
3:00 PM19 °FLight snow. Partly sunny.23 mph49%30.14 "Hg15 mi
2:00 PM16 °FLight snow. Partly sunny.26 mph53%30.14 "Hg15 mi
1:00 PM14 °FLight snow. Partly sunny.25 mph52%30.15 "Hg15 mi
12:00 PM10 °FLight snow. Overcast.25 mph61%30.16 "Hg12 mi
11:00 AM10 °FLight snow. Broken clouds.28 mph56%30.14 "Hg8 mi
10:00 AM7 °FLight snow. Mostly cloudy.28 mph66%30.15 "Hg5 mi
9:00 AM5 °FLight snow. Mostly cloudy.22 mph72%30.15 "Hg3 mi
8:00 AM3 °FLight snow. Overcast.18 mph72%30.13 "Hg1 mi
7:46 AM3 °FLight snow. Overcast.16 mph72%30.12 "Hg1 mi
7:00 AM3 °FSnow flurries. Broken clouds.18 mph60%30.11 "Hg15 mi
Weather by CustomWeather, © 2014

See weather overview